Regional Weather Roundup
Issued by NWS

Home | Current Version | Previous Version | Graphics & Text | Print | Product List | Glossary On
Versions: 1 2 3 4 5 6 7 8 9 10 11 12 13 14 15 16 17 18 19 20 21 22 23 24 25 26 27 28 29 30 31 32 33 34 35 36 37 38 39 40 41 42 43 44 45 46 47 48 49 50
000
ASUS43 KLMK 020002
RWRKY
KENTUCKY REGIONAL WEATHER ROUNDUP
NATIONAL WEATHER SERVICE LOUISVILLE KY
800 PM EDT WED APR 01 2015

NOTE "FAIR" INDICATES FEW OR NO CLOUDS BELOW 12,000 FEET
WITH NO SIGNIFICANT WEATHER AND/OR OBSTRUCTIONS TO VISIBILITY.

KYZ001>023-026-027-061>063-070>075-020100-
WESTERN AND SOUTH CENTRAL KENTUCKY

CITY           SKY/WX    TMP DP  RH WIND       PRES   REMARKS
PADUCAH        CLOUDY    73  38  27 SE3       29.95S
HENDERSON      PTCLDY    66  36  32 SE6       29.97F
OWENSBORO      CLEAR     67  38  34 S9        30.01F
HOPKINSVILLE   PTCLDY    68  39  35 E8        29.99S
BOWLING GREEN  PTCLDY    64  35  34 NE5       30.03F
GLASGOW        NOT AVBL
$$

KYZ024-025-028>034-038-045-046-053-020100-
NORTH CENTRAL KENTUCKY

CITY           SKY/WX    TMP DP  RH WIND       PRES   REMARKS
LOUISVILLE/SDF MOCLDY    64  30  27 E7        30.05F
LOUISVILLE/LOU PTCLDY    65  30  27 SE6       30.05F
FORT KNOX      PTCLDY    63  29  28 E7        30.03F HAZE
$$

KYZ035>037-039>044-047>052-055>060-089>105-020100-
NORTHEAST KENTUCKY

CITY           SKY/WX    TMP DP  RH WIND       PRES   REMARKS
LEXINGTON      MOCLDY    62  26  25 E5        30.08S
COVINGTON      MOCLDY    59  30  33 SE8       30.07F
FRANKFORT      MOCLDY    59  29  31 E6        30.06F
$$

KYZ054-064>069-076>088-106>120-020100-
SOUTHEAST KENTUCKY

CITY           SKY/WX    TMP DP  RH WIND       PRES   REMARKS
JACKSON        PTCLDY    62  16  16 CALM      30.11R
LONDON         PTCLDY    66  18  15 N3        30.07S
SOMERSET       NOT AVBL
MIDDLESBORO    NOT AVBL
MONTICELLO     PTCLDY    60  30  32 NE8       30.08S
$$




USA.gov is the U.S. government's official web portal to all federal, state and local government web resources and services.